Location: *
(32.8140°S, 174.6161°E)
Time: 08:11:15
(UTC+00:00)

Cosmos 2228 Rocket - Pass Details

Date: 10 December 2019
Orbit: 617 x 653 km, 82.5° (Epoch: 18 January)

Event Time Altitude Azimuth Distance (km) Brightness Sun altitude
Exits shadow 16:09:38 - 355° (N) 2,522 5.8 -10.9°
Reaches altitude 10° 16:10:57 10° 355° (N) 1,991 5.3 -10.7°
Maximum altitude 16:15:21 89° 279° (W) 631 3.1 -10.0°
Drops below altitude 10° 16:19:49 10° 174° (S) 2,010 6.3 -9.2°
Sets 16:22:04 0° 173° (S) 2,923 7.2 -8.8°
